Simultaneous Nadir Overpasses (SNOs) Predictions

Prediction of SNOs between METOP-A and TERRA Satellite Orbit:

Table of predicted SNOs for the next 14.0 days since TLE Epoch: 4/6/2018
Index Date (METOP-A) Time (METOP-A) Lat,Lon (METOP-A) SZA (METOP-A ) Date (TERRA) Time (TERRA) Lat,Lon (TERRA) SZA (TERRA ) Distance(km) Time Diff (sec)
1 04/08/2018 10:23:49 81.41, 73.11 77.08 04/08/2018 10:23:52 81.40, 73.27 77.09 2.70 3
2 04/08/2018 11:14:28 -81.41,-118.78 102.85 04/08/2018 11:13:18 -81.41,-118.79 102.88 0.71 70
3 04/11/2018 05:58:06 81.41, 140.01 76.12 04/11/2018 05:58:10 81.41, 139.92 76.11 1.53 4
4 04/11/2018 06:48:47 -81.41, -52.64 103.90 04/11/2018 06:47:37 -81.41, -52.51 103.92 2.08 70
5 04/14/2018 01:32:25 81.41,-153.90 75.08 04/14/2018 01:32:29 81.40,-153.82 75.09 1.49 4
6 04/14/2018 02:23:05 -81.41, 13.89 104.88 04/14/2018 02:21:56 -81.40, 13.77 104.93 2.08 69
7 04/16/2018 21:06:41 81.41, -87.03 74.16 04/16/2018 21:06:46 81.41, -87.16 74.15 2.29 5
8 04/16/2018 21:57:22 -81.41, 80.40 105.85 04/16/2018 21:56:13 -81.41, 80.44 105.87 0.93 69
9 04/19/2018 16:41:00 81.41, -20.96 73.16 04/19/2018 16:41:05 81.41, -20.89 73.17 1.21 5




NCC Satellite Simultaneous Nadir Overpasses (SNOs) Prediction Service
